Content
SEND FEEDBACK

Daily
Averages
Monthly
Summary
United States of America

ORANGEBURG, SOUTH CAROLINA


Home > North America > United States > South Carolina
Elevation: 195 feet     Latitude: 33 28N     Longitude: 080 51W

WEATHER
 
SELECT A DAY
Number of Records: 195,294;   Date Range: 3/20/97 - 12/19/14
 
SHARE

PRINT THIS DATA

[ ← Previous Day ]
WEATHER ALMANAC - APRIL 7, 2014
[ Next Day → ]
[ °C ]   °F
Weather ElementAverageHighLow
Temperature60.2 °F70 °F (11:43 am)55.9 °F (1:53 am)
Dewpoint55.6 °F61 °F (10:33 am)46 °F (1:53 am)
Humidity85.3 %93 % (3:19 pm)69 % (1:53 am)
Barometer29.87 in30.00 in (1:53 am)29.72 in (11:53 pm)
Wind Speed6.8 mph18.4 mph (12:09 pm)
Wind Gust27.6 mph (12:09 pm)
Weather ElementAverage
Visibility6.3 mi
Wind DirectionSSE (142.1 °)

Weather ElementTotal
Precipitation2.93 in
Heating Degree Days2.1 (Base 65)
Growing Degree Days13 (Base 50)
Averaged from 47 records on April 7, 2014
WEATHER CONDITIONS BREAKOUT
WIND DIRECTION BREAKOUT
WEATHER BY HOUR - APRIL 7, 2014
[ °C ]   °F
Local TimeTemperatureDewpointHumidityBarometerVisibilityWind DirectionWind SpeedGust SpeedPrecipitationEventsConditions
1:53 AM55.9 °F46.0 °F69 %30.00 in10.0 miENE (70°)4.6 mphOvercast
2:53 AM55.9 °F46.9 °F72 %29.97 in10.0 miCalmOvercast
3:42 AM57.0 °F48.0 °F72 %29.94 in10.0 miEast (100°)5.8 mphOvercast
3:53 AM57.0 °F48.0 °F72 %29.94 in10.0 miESE (110°)4.6 mphOvercast
4:53 AM57.0 °F50.0 °F77 %29.92 in10.0 miENE (70°)4.6 mphOvercast
5:53 AM57.0 °F51.1 °F81 %29.91 in9.0 miESE (110°)5.8 mphOvercast
6:53 AM57.0 °F52.0 °F83 %29.91 in8.0 miESE (110°)5.8 mphOvercast
7:53 AM57.9 °F54.0 °F87 %29.91 in5.0 miSE (130°)4.6 mphOvercast
8:06 AM57.9 °F54.0 °F87 %29.90 in4.0 miSE (130°)6.9 mphOvercast
8:53 AM60.1 °F55.9 °F86 %29.88 in4.0 miSE (130°)8.1 mphOvercast
9:38 AM63.0 °F59.0 °F87 %29.88 in5.0 miSouth (170°)9.2 mphOvercast
9:53 AM64.9 °F60.1 °F84 %29.88 in6.0 miSouth (190°)11.5 mphHaze
10:33 AM66.9 °F61.0 °F81 %29.87 in8.0 miSouth (180°)6.9 mphScattered Clouds
10:53 AM69.1 °F61.0 °F75 %29.88 in10.0 miSSW (210°)11.5 mphPartly Cloudy
11:43 AM70.0 °F61.0 °F73 %29.91 in10.0 miWNW (300°)5.8 mphOvercast
11:53 AM69.1 °F61.0 °F75 %29.92 in10.0 miNW (320°)15.0 mph19.6 mphOvercast
12:09 PM62.1 °F55.9 °F80 %29.94 in5.0 miNNW (340°)18.4 mph27.6 mphHaze
12:33 PM59.0 °F54.0 °F83 %29.94 in8.0 miNorth (350°)13.8 mph0.00 inOvercast
12:53 PM57.0 °F52.0 °F83 %29.94 in10.0 miNorth (360°)10.4 mph26.5 mph0.00 inOvercast
1:02 PM57.0 °F52.0 °F83 %29.94 in10.0 miNNE (20°)8.1 mphOvercast
1:53 PM59.0 °F53.1 °F81 %29.91 in10.0 miNE (40°)5.8 mphOvercast
2:10 PM60.1 °F53.1 °F78 %29.91 in10.0 miNE (40°)3.5 mphOvercast
2:51 PM59.0 °F53.6 °F82 %29.88 in2.5 miNorth (10°)4.6 mph0.02 inRain-ThunderstormRain
2:53 PM59.0 °F54.0 °F83 %29.88 in2.5 miNorth (10°)4.6 mph0.02 inRain-ThunderstormHeavy Rain
3:03 PM59.0 °F55.0 °F87 %29.92 in4.0 miWSW (250°)6.9 mph0.01 inRain-ThunderstormLight Rain
3:06 PM59.0 °F55.0 °F87 %29.91 in1.5 miWest (260°)9.2 mph0.13 inRain-ThunderstormRain
3:09 PM57.9 °F55.0 °F90 %29.87 in0.8 miVariable4.6 mph0.21 inRain-ThunderstormHeavy Thunderstorms and Rain
3:19 PM57.9 °F55.9 °F93 %29.87 in1.8 miEast (100°)3.5 mph0.25 inRain-ThunderstormThunderstorms and Rain
3:22 PM59.0 °F55.9 °F90 %29.88 in3.0 miCalm0.25 inRain-ThunderstormLight Thunderstorms and Rain
3:34 PM59.0 °F55.9 °F90 %29.86 in2.0 miNE (40°)4.6 mph0.31 inRain-ThunderstormHeavy Rain
3:41 PM59.0 °F55.9 °F90 %29.86 in3.0 miENE (60°)4.6 mph0.32 inRainRain
3:53 PM59.0 °F57.0 °F93 %29.86 in3.0 miNE (40°)3.5 mph0.37 inRain-ThunderstormHeavy Rain
4:08 PM59.0 °F57.0 °F93 %29.86 in1.8 miNNW (330°)3.5 mph0.05 inRainHeavy Rain
4:16 PM59.0 °F57.0 °F93 %29.87 in3.0 miWest (280°)3.5 mph0.06 inRainLight Rain
4:36 PM59.0 °F57.0 °F93 %29.88 in1.5 miVariable3.5 mph0.15 inRain-ThunderstormHeavy Rain
4:41 PM59.0 °F57.0 °F93 %29.83 in0.8 miNE (40°)5.8 mph0.22 inRain-ThunderstormHeavy Rain
4:53 PM60.1 °F57.0 °F90 %29.82 in1.8 miEast (90°)4.6 mph0.29 inRainHeavy Rain
5:00 PM60.1 °F57.9 °F93 %29.83 in2.5 miSE (130°)6.9 mph0.02 inRainRain
5:08 PM60.1 °F57.0 °F90 %29.84 in3.0 miSE (140°)10.4 mph0.04 inRainRain
5:53 PM60.1 °F57.9 °F93 %29.82 in5.0 miESE (120°)5.8 mph0.12 inRainLight Rain
6:53 PM61.0 °F57.9 °F90 %29.78 in10.0 miSSE (150°)11.5 mph0.05 inRainLight Rain
7:53 PM61.0 °F59.0 °F93 %29.79 in10.0 miSouth (180°)6.9 mph0.00 inOvercast
8:53 PM62.1 °F59.0 °F90 %29.77 in10.0 miSouth (180°)9.2 mph0.00 inMostly Cloudy
9:53 PM62.1 °F59.0 °F90 %29.75 in10.0 miSouth (170°)8.1 mph0.00 inRainLight Rain
10:24 PM62.1 °F60.1 °F93 %29.76 in10.0 miSW (230°)5.8 mph0.01 inRainLight Rain
10:53 PM62.1 °F60.1 °F93 %29.74 in10.0 miSouth (190°)5.8 mph0.01 inMostly Cloudy
11:53 PM63.0 °F60.1 °F90 %29.72 in9.0 miSSW (200°)10.4 mph19.6 mph0.02 inRainLight Rain
Hourly data recorded from KOGB, located miles away from Orangeburg, South Carolina







STORIES FROM OUR PARTNERS